Location: Hilton Head Island
(32.2163°N, 80.7526°W)
Time: 11:26:12
(UTC-04:00)

S-56A Canister/Altair - Pass Details

Date: 20 February 2026
Orbit: 633 x 2484 km, 38.9° (Epoch: 10 March)

Event Time Altitude Azimuth Distance (km) Brightness Sun altitude
Exits shadow 04:38:41 59° 261° (W) 1,911 9.0 -30.6°
Maximum altitude 04:40:42 69° 210° (SSW) 1,880 9.2 -30.2°
Drops below altitude 10° 04:53:50 10° 130° (SE) 4,858 12.1 -27.4°
Sets 04:58:03 0° 128° (SE) 6,012 12.8 -26.6°
